Hourly Weather Eger

Today, 14 July, Tuesday

Time Temperature Precipitation Wind Pressure Humidity
00:00 +13°C° 0 mm 1 mps 748 mmHg 78%
01:00 +12°C° 0 mm 1 mps 748 mmHg 77%
02:00 +12°C° 0 mm 2 mps 748 mmHg 78%
03:00 +12°C° 0 mm 2 mps 747 mmHg 80%
04:00 +10°C° 0 mm 2 mps 747 mmHg 81%
05:00 +13°C° 0 mm 2 mps 747 mmHg 77%
06:00 +15°C° 0 mm 2 mps 747 mmHg 73%
07:00 +17°C° 0 mm 2 mps 747 mmHg 69%
08:00 +18°C° 0 mm 2 mps 747 mmHg 63%
09:00 +19°C° 0 mm 2 mps 747 mmHg 58%
10:00 +21°C° 0 mm 2 mps 747 mmHg 53%
11:00 +21°C° 0 mm 2 mps 746 mmHg 51%
12:00 +23°C° 0 mm 2 mps 746 mmHg 50%
13:00 +23°C° 0 mm 1 mps 746 mmHg 49%
14:00 +23°C° 0 mm 1 mps 746 mmHg 50%
15:00 +23°C° 0 mm 2 mps 745 mmHg 52%
16:00 +23°C° 0 mm 2 mps 745 mmHg 53%
17:00 +22°C° 0 mm 1 mps 745 mmHg 59%
18:00 +20°C° 0 mm 1 mps 745 mmHg 65%
19:00 +17°C° 0 mm 0 mps 744 mmHg 72%
20:00 +16°C° 0 mm 0 mps 744 mmHg 73%
21:00 +15°C° 0 mm 0 mps 744 mmHg 74%
22:00 +14°C° 0 mm 0 mps 744 mmHg 76%
23:00 +15°C° 0 mm 1 mps 744 mmHg 77%

Tomorrow, 15 July, Wednesday

Time Temperature Precipitation Wind Pressure Humidity
00:00 +15°C° 0 mm 1 mps 745 mmHg 77%
01:00 +15°C° 0 mm 1 mps 745 mmHg 78%
02:00 +14°C° 0 mm 1 mps 744 mmHg 79%
03:00 +14°C° 0 mm 1 mps 744 mmHg 80%
04:00 +13°C° 0 mm 1 mps 744 mmHg 82%
05:00 +15°C° 0 mm 1 mps 744 mmHg 78%
06:00 +18°C° 0 mm 1 mps 744 mmHg 74%
07:00 +19°C° 0 mm 1 mps 744 mmHg 70%
08:00 +21°C° 0 mm 1 mps 744 mmHg 65%
09:00 +22°C° 0 mm 1 mps 744 mmHg 61%
10:00 +23°C° 0 mm 1 mps 744 mmHg 56%
11:00 +24°C° 0 mm 1 mps 744 mmHg 54%
12:00 +24°C° 0 mm 1 mps 744 mmHg 52%
13:00 +25°C° 0 mm 1 mps 744 mmHg 49%
14:00 +25°C° 0 mm 1 mps 744 mmHg 49%
15:00 +25°C° 0 mm 1 mps 743 mmHg 49%
16:00 +25°C° 0 mm 1 mps 743 mmHg 49%
17:00 +23°C° 0 mm 1 mps 743 mmHg 55%
18:00 +22°C° 0 mm 1 mps 743 mmHg 61%
19:00 +20°C° 0 mm 1 mps 743 mmHg 67%
20:00 +17°C° 0 mm 0 mps 743 mmHg 68%
21:00 +16°C° 0 mm 0 mps 743 mmHg 69%
22:00 +15°C° 0 mm 0 mps 743 mmHg 70%
23:00 +15°C° 0 mm 0 mps 743 mmHg 71%

Day after tomorrow, 16 July, Thursday

Time Temperature Precipitation Wind Pressure Humidity
00:00 +15°C° 0 mm 0 mps 743 mmHg 72%
01:00 +14°C° 0 mm 0 mps 743 mmHg 73%
02:00 +14°C° 0 mm 0 mps 743 mmHg 74%
03:00 +14°C° 0 mm 0 mps 743 mmHg 75%
04:00 +14°C° 0 mm 0 mps 743 mmHg 76%
05:00 +15°C° 0 mm 0 mps 743 mmHg 72%
06:00 +19°C° 0 mm 1 mps 743 mmHg 69%
07:00 +21°C° 0 mm 1 mps 743 mmHg 65%
08:00 +21°C° 0 mm 1 mps 743 mmHg 64%
09:00 +21°C° 0 mm 2 mps 743 mmHg 63%
10:00 +22°C° 0 mm 3 mps 743 mmHg 62%
11:00 +24°C° 0.1 mm 3 mps 743 mmHg 61%
12:00 +24°C° 0.1 mm 3 mps 743 mmHg 61%
13:00 +25°C° 0.1 mm 3 mps 743 mmHg 60%
14:00 +25°C° 0.1 mm 3 mps 743 mmHg 61%
15:00 +24°C° 0.1 mm 3 mps 742 mmHg 62%
16:00 +24°C° 0.1 mm 3 mps 742 mmHg 63%
17:00 +22°C° 0.1 mm 3 mps 742 mmHg 68%
18:00 +21°C° 0.1 mm 3 mps 742 mmHg 72%
19:00 +19°C° 0.1 mm 2 mps 742 mmHg 77%
20:00 +19°C° 0 mm 2 mps 742 mmHg 79%
21:00 +18°C° 0 mm 2 mps 742 mmHg 80%
22:00 +17°C° 0 mm 2 mps 742 mmHg 81%
23:00 +18°C° 0 mm 1 mps 742 mmHg 82%

17 July, Friday

Time Temperature Precipitation Wind Pressure Humidity
00:00 +16°C° 0 mm 1 mps 743 mmHg 83%
01:00 +16°C° 0 mm 1 mps 743 mmHg 84%
02:00 +16°C° 0.1 mm 1 mps 742 mmHg 86%
03:00 +15°C° 0.1 mm 1 mps 742 mmHg 88%
04:00 +15°C° 0.1 mm 1 mps 742 mmHg 89%
05:00 +16°C° 0 mm 1 mps 742 mmHg 86%
06:00 +18°C° 0 mm 1 mps 742 mmHg 83%
07:00 +19°C° 0 mm 1 mps 743 mmHg 80%
08:00 +19°C° 0.2 mm 1 mps 743 mmHg 78%
09:00 +19°C° 0.2 mm 2 mps 743 mmHg 76%
10:00 +19°C° 0.2 mm 2 mps 743 mmHg 73%
11:00 +20°C° 0.2 mm 2 mps 743 mmHg 69%
12:00 +22°C° 0.2 mm 1 mps 743 mmHg 64%
13:00 +24°C° 0.2 mm 1 mps 743 mmHg 60%
14:00 +23°C° 0.4 mm 1 mps 742 mmHg 62%
15:00 +23°C° 0.4 mm 1 mps 742 mmHg 64%
16:00 +22°C° 0.4 mm 1 mps 742 mmHg 66%
17:00 +21°C° 0.1 mm 1 mps 742 mmHg 70%
18:00 +20°C° 0.1 mm 1 mps 742 mmHg 74%
19:00 +19°C° 0.1 mm 1 mps 742 mmHg 78%
20:00 +17°C° 0 mm 0 mps 742 mmHg 79%
21:00 +16°C° 0 mm 0 mps 743 mmHg 81%
22:00 +15°C° 0 mm 0 mps 743 mmHg 82%
23:00 +14°C° 0 mm 0 mps 743 mmHg 83%

18 July, Saturday

Time Temperature Precipitation Wind Pressure Humidity
00:00 +14°C° 0 mm 0 mps 743 mmHg 84%
01:00 +14°C° 0 mm 0 mps 743 mmHg 85%
02:00 +14°C° 0 mm 1 mps 743 mmHg 86%
03:00 +14°C° 0 mm 1 mps 743 mmHg 88%
04:00 +14°C° 0 mm 1 mps 743 mmHg 89%
05:00 +15°C° 0 mm 1 mps 743 mmHg 86%
06:00 +16°C° 0 mm 1 mps 743 mmHg 83%
07:00 +19°C° 0 mm 1 mps 743 mmHg 80%
08:00 +20°C° 0.3 mm 1 mps 743 mmHg 76%
09:00 +21°C° 0.3 mm 1 mps 743 mmHg 71%
10:00 +23°C° 0.3 mm 1 mps 743 mmHg 66%
11:00 +24°C° 0.3 mm 1 mps 743 mmHg 62%
12:00 +24°C° 0.3 mm 1 mps 743 mmHg 58%
13:00 +25°C° 0.3 mm 1 mps 743 mmHg 53%
14:00 +25°C° 0.2 mm 1 mps 743 mmHg 55%
15:00 +25°C° 0.2 mm 1 mps 742 mmHg 56%
16:00 +25°C° 0.2 mm 1 mps 742 mmHg 57%
17:00 +23°C° 0.2 mm 1 mps 742 mmHg 64%
18:00 +22°C° 0.2 mm 1 mps 742 mmHg 70%
19:00 +20°C° 0.2 mm 1 mps 742 mmHg 76%
20:00 +19°C° 0 mm 1 mps 743 mmHg 77%
21:00 +19°C° 0 mm 1 mps 743 mmHg 78%
22:00 +18°C° 0 mm 1 mps 743 mmHg 79%
23:00 +16°C° 0 mm 1 mps 743 mmHg 80%

19 July, Sunday

Time Temperature Precipitation Wind Pressure Humidity
00:00 +16°C° 0 mm 1 mps 743 mmHg 82%
01:00 +16°C° 0 mm 1 mps 743 mmHg 83%
02:00 +15°C° 0 mm 1 mps 743 mmHg 85%
03:00 +15°C° 0 mm 1 mps 743 mmHg 87%
04:00 +14°C° 0 mm 1 mps 743 mmHg 88%
05:00 +16°C° 0 mm 1 mps 743 mmHg 85%
06:00 +18°C° 0 mm 1 mps 744 mmHg 82%
07:00 +20°C° 0 mm 1 mps 744 mmHg 79%
08:00 +21°C° 0 mm 1 mps 744 mmHg 73%
09:00 +23°C° 0 mm 1 mps 744 mmHg 66%
10:00 +25°C° 0 mm 1 mps 744 mmHg 60%
11:00 +25°C° 0.1 mm 1 mps 744 mmHg 56%
12:00 +26°C° 0.1 mm 2 mps 744 mmHg 52%
13:00 +27°C° 0.1 mm 2 mps 743 mmHg 48%
14:00 +27°C° 0 mm 2 mps 743 mmHg 50%
15:00 +27°C° 0 mm 2 mps 743 mmHg 51%
16:00 +27°C° 0 mm 3 mps 743 mmHg 52%
17:00 +25°C° 0 mm 2 mps 743 mmHg 58%
18:00 +24°C° 0 mm 2 mps 743 mmHg 64%
19:00 +21°C° 0 mm 2 mps 743 mmHg 70%
20:00 +20°C° 0 mm 2 mps 743 mmHg 71%
21:00 +20°C° 0 mm 2 mps 744 mmHg 72%
22:00 +20°C° 0 mm 1 mps 744 mmHg 74%
23:00 +19°C° 0 mm 1 mps 744 mmHg 75%
Show more